Weather in Wuhan

China     30˚35′29″N   114˚18′53″E
temp.,
°C
wind,
m/s
gust,
m/s
humid.,
%
clouds,
%
prec.,
mm/h
press.,
hPa
HPBL,
m
28 november, sat
sat2823:00+9˚nne4767100 0.0 1034431
02:00+9˚nne4668100 0.0 1033428
05:00+8˚ne3668100 0.1 1033367
08:00+8˚nne3571100 0.3 1033399
11:00+8˚n5771100 0.4 1035400
14:00+8˚nne3475100 0.9 1032623
17:00+8˚nne3576100 0.4 1032553
20:00+8˚ne2376100 0.4 1032517
29 november, sun
sun2923:00+8˚ne227499 0.0 1032417
02:00+8˚ene237699 0.0 1031375
05:00+8˚ne1278100 0.0 1030279
08:00+8˚nne2378100 0.0 1032280
11:00+10˚ne2266100 0.0 1032647
14:00+12˚n225175 0.0 10301089
17:00+12˚nne23494 0.0 1031883
20:00+11˚n13512 0.0 1032394
30 november, mon
mon3023:00+10˚nne25550 0.0 1033294
02:00+9˚nne24590 0.0 1033274
05:00+8˚nne34680 0.0 1032220
08:00+8˚ne34720 0.0 1033238
11:00+11˚ene22630 0.0 1033738
14:00+13˚ne235523 0.0 10311119
17:00+12˚ene235567 0.0 1031886
20:00+11˚nne355733 0.0 1033343
1 december, tue
tue123:00+9˚n12630 0.0 1033229
02:00+8˚n126732 0.0 1033139
05:00+8˚ene116967 0.0 103254
08:00+8˚ne236633 0.0 1033205
11:00+11˚ne33530 0.0 1032778
14:00+12˚ne234833 0.0 10291215
17:00+12˚nne225197 0.0 10291006
20:00+12˚nne235497 0.0 1030885
2 december, wed
wed223:00+11˚nne3460100 0.0 1029290
02:00+10˚nne236675 0.0 1028203
05:00+9˚n356968 0.0 1028301
08:00+8˚nne356882 0.0 1030328
11:00+9˚ne2464100 0.0 1030293
14:00+11˚nne3459100 0.0 1027528
17:00+12˚nne245638 0.0 1027776
20:00+10˚n697132 0.0 1030518